Date_and_time,latitude,longitude,wind_speed,RelWindDirFrom,WindDirFrom,air_pressure,air_temperature,relative_humidity,Temp,platform_speed_wrt_ground,air_pressure_at_mean_sea_level,platform_orientation
2018-05-05 23:40,50.63045,-96.9807583333333,1.8,4.0,30,990.87,7.4,48,5.48,0.0,1018.12,360.0
2018-05-05 23:50,50.6304566666667,-96.980815,1.3,2.4,29,990.98,7.6,47,5.47,0.0,1018.20,360.0
2018-05-06 00:00,50.6304333333333,-96.9807766666667,3.6,5.6,23,991.01,7.0,49,5.50,0.0,1018.23,130.6
2018-05-06 00:10,50.630445,-96.9807616666667,4.3,5.2,20,990.88,6.9,48,5.49,0.0,1018.10,130.6
2018-05-06 00:20,50.6304466666667,-96.9807566666667,4.3,4.9,15,990.88,7.0,48,5.44,0.0,1018.10,130.6
2018-05-06 00:30,50.630445,-96.980755,4.6,5.8,15,990.93,7.0,49,5.42,0.0,1018.19,130.6
2018-05-06 00:40,50.6304416666667,-96.98076,6.6,7.8,15,990.89,7.2,48,5.45,0.0,1018.16,130.6
2018-05-06 00:50,50.630435,-96.98077,6.6,7.5,10,990.93,7.3,48,5.47,0.0,1018.18,130.6
2018-05-06 01:00,50.6304366666667,-96.9807683333333,3.6,6.4,24,991.02,7.2,51,5.46,0.0,1018.24,270.0
2018-05-06 01:10,50.6304383333333,-96.98077,2.0,3.2,42,991.06,6.9,52,5.81,0.0,1018.31,270.0
2018-05-06 01:20,50.6304383333333,-96.98077,2.9,3.4,21,991.05,6.8,50,6.03,0.0,1018.29,270.0
2018-05-06 01:30,50.6304383333333,-96.9807666666667,2.1,3.1,35,991.09,6.5,53,5.78,0.0,1018.35,270.0
2018-05-06 01:40,50.6304033333333,-96.98076,1.2,3.3,53,991.12,6.4,55,5.52,0.0,1018.36,270.0
2018-05-06 01:50,50.630435,-96.9807733333333,0.8,2.7,34,991.12,5.8,60,5.34,0.0,1018.43,270.0
2018-05-06 02:00,50.63042,-96.98076,3.2,3.8,29,991.07,6.1,53,5.37,0.0,1018.36,194.5
2018-05-06 02:10,50.6304383333333,-96.9807716666667,4.3,5.1,18,991.12,6.2,52,5.38,0.0,1018.41,194.5
2018-05-06 02:20,50.6304333333333,-96.9807666666667,4.4,5.0,8,991.20,5.9,54,5.27,0.0,1018.50,194.5
2018-05-06 02:30,50.630435,-96.9807566666667,4.0,4.6,12,991.29,6.1,53,5.13,0.0,1018.58,194.5
2018-05-06 02:40,50.630435,-96.9807783333333,3.3,3.7,13,991.28,6.4,52,5.06,0.0,1018.55,194.5
2018-05-06 02:50,50.6304416666667,-96.98078,3.4,3.8,10,991.36,6.5,52,5.05,0.0,1018.63,194.5
2018-05-06 03:00,50.6304383333333,-96.980775,3.9,4.5,22,991.26,6.5,52,5.05,0.0,1018.54,360.0
2018-05-06 03:10,50.6304266666667,-96.9807633333333,3.8,4.6,8,991.42,6.4,52,5.05,0.0,1018.72,360.0
2018-05-06 03:20,50.6304266666667,-96.9807716666667,4.2,4.8,10,991.52,6.5,52,5.14,0.0,1018.82,360.0
2018-05-06 03:30,50.6304283333333,-96.9807733333333,4.2,5.0,25,991.36,6.6,52,5.22,0.0,1018.67,360.0
2018-05-06 03:40,50.63044,-96.9807516666667,3.4,4.3,30,991.27,6.3,53,5.27,0.0,1018.61,360.0
2018-05-06 03:50,50.63042,-96.9807683333333,3.0,3.7,48,991.12,6.1,54,5.29,0.0,1018.46,360.0
2018-05-06 04:00,50.630425,-96.9807616666667,2.1,2.4,57,991.10,5.9,55,5.31,0.0,1018.44,138.7
2018-05-06 04:10,50.6304583333333,-96.980755,2.0,3.5,44,991.20,5.8,55,5.34,0.0,1018.56,138.7
2018-05-06 04:20,50.63044,-96.9807583333333,1.5,2.4,354,991.44,5.9,54,5.38,0.0,1018.79,138.7
2018-05-06 04:30,50.6304316666667,-96.980765,1.5,2.4,329,991.63,6.3,52,5.41,0.0,1018.95,138.7
2018-05-06 04:40,50.6304316666667,-96.980765,1.4,1.9,301,991.73,6.9,49,5.42,0.0,1019.02,138.7
2018-05-06 04:50,50.6304333333333,-96.9807666666667,1.4,2.1,251,991.75,7.2,49,5.43,0.0,1019.02,138.7
2018-05-06 05:00,50.6304333333333,-96.9807666666667,1.7,3.2,25,991.59,7.3,50,5.43,0.0,1018.86,345.5
2018-05-06 05:10,50.6304333333333,-96.980765,3.4,4.1,359,991.76,6.9,51,5.42,0.0,1019.05,345.5
2018-05-06 05:20,50.6304333333333,-96.980765,3.2,4.2,333,992.03,7.2,48,5.40,0.0,1019.32,345.5
2018-05-06 05:30,50.6304466666667,-96.9807683333333,2.6,3.3,348,991.98,7.7,48,5.39,0.0,1019.25,345.5
2018-05-06 05:40,50.6304416666667,-96.9807583333333,2.4,3.5,2,991.98,7.8,47,5.38,0.0,1019.26,345.5
2018-05-06 05:50,50.6304416666667,-96.9807616666667,0.7,2.4,37,991.88,7.8,48,5.38,0.0,1019.16,345.5
2018-05-06 06:00,50.63044,-96.9807616666667,0.0,0.8,0,991.96,7.2,53,5.38,0.0,1019.28,90.0
2018-05-06 06:10,50.6304383333333,-96.9807616666667,0.0,0.0,0,991.94,7.2,49,5.37,0.0,1019.26,90.0
2018-05-06 06:20,50.6304366666667,-96.9807633333333,0.0,0.0,0,992.06,7.8,46,5.36,0.0,1019.32,90.0
2018-05-06 06:30,50.6304266666667,-96.980765,0.3,2.3,7,992.22,7.6,54,5.34,0.0,1019.47,90.0
2018-05-06 06:40,50.6304383333333,-96.98076,2.1,2.8,37,992.21,7.5,47,5.33,0.0,1019.45,90.0
2018-05-06 06:50,50.6304366666667,-96.9807583333333,2.0,2.8,40,992.19,7.0,52,5.34,0.0,1019.45,90.0
2018-05-06 07:00,50.6304333333333,-96.9807566666667,0.4,1.8,54,992.17,7.1,48,5.36,0.0,1019.45,38.0
2018-05-06 07:10,50.6304333333333,-96.98076,1.4,2.4,220,992.17,6.6,55,5.39,0.0,1019.46,38.0
2018-05-06 07:20,50.6304333333333,-96.9807616666667,1.4,2.1,251,992.30,7.0,50,5.41,0.0,1019.55,38.0
2018-05-06 07:30,50.6304333333333,-96.98076,1.2,1.9,250,992.30,7.1,59,5.42,0.0,1019.54,38.0
2018-05-06 07:40,50.630435,-96.9807616666667,1.7,2.4,261,992.36,6.9,61,5.43,0.0,1019.61,38.0
2018-05-06 07:50,50.630435,-96.9807616666667,1.2,1.9,285,992.39,6.9,60,5.49,0.0,1019.66,38.0
2018-05-06 08:00,50.630435,-96.9807616666667,0.9,1.6,276,992.38,7.0,63,5.53,0.0,1019.66,48.3
2018-05-06 08:10,50.630435,-96.9807566666667,1.1,1.6,261,992.44,6.9,61,5.52,0.0,1019.68,48.3
2018-05-06 08:20,50.6304333333333,-96.9807616666667,1.3,2.2,244,992.50,7.0,59,5.51,0.0,1019.76,48.3
2018-05-06 08:30,50.6304383333333,-96.98076,2.0,2.4,236,992.62,7.0,55,5.50,0.0,1019.89,48.3
2018-05-06 08:40,50.6304516666667,-96.9807633333333,1.6,2.3,226,992.76,7.3,54,5.47,0.0,1020.04,48.3
2018-05-06 08:50,50.630445,-96.9807616666667,1.9,2.3,216,992.85,6.9,59,5.46,0.0,1020.14,48.3
2018-05-06 09:00,50.6304416666667,-96.98076,1.8,2.6,240,992.94,6.6,58,5.48,0.0,1020.28,90.0
2018-05-06 09:10,50.6304416666667,-96.98076,1.8,2.9,257,993.01,7.0,58,5.52,0.0,1020.32,90.0
2018-05-06 09:20,50.6304416666667,-96.9807583333333,3.0,3.6,243,993.03,6.9,57,5.53,0.0,1020.33,90.0
2018-05-06 09:30,50.6304433333333,-96.980755,2.9,3.8,243,993.06,6.9,54,5.53,0.0,1020.37,90.0
2018-05-06 09:40,50.6304483333333,-96.980745,2.2,3.5,259,993.04,7.2,53,5.53,0.0,1020.34,90.0
2018-05-06 09:50,50.63044,-96.98075,1.5,2.3,265,993.07,7.3,53,5.52,0.0,1020.36,90.0
2018-05-06 10:00,50.63044,-96.980755,2.4,3.4,248,993.11,7.3,53,5.53,0.0,1020.40,360.0
2018-05-06 10:10,50.63044,-96.980755,1.3,2.7,274,993.17,7.2,54,5.55,0.0,1020.46,360.0
2018-05-06 10:20,50.630415,-96.980765,0.3,1.0,288,993.11,7.2,57,5.57,0.0,1020.40,360.0
2018-05-06 10:30,50.6304216666667,-96.98076,0.9,2.2,0,993.14,7.0,61,5.64,0.0,1020.43,360.0
2018-05-06 10:40,50.6304266666667,-96.9807583333333,1.9,2.4,22,993.14,6.3,64,5.69,0.0,1020.48,360.0
2018-05-06 10:50,50.6304383333333,-96.980755,2.5,3.2,25,993.07,5.9,67,5.71,0.0,1020.45,360.0
2018-05-06 11:00,50.6304316666667,-96.98075,4.0,6.6,20,993.06,5.1,73,5.70,0.0,1020.46,131.7
2018-05-06 11:10,50.6304516666667,-96.98077,5.5,7.3,29,993.16,4.1,74,5.68,0.0,1020.61,131.7
2018-05-06 11:20,50.6304416666667,-96.9807633333333,5.6,6.2,31,993.29,2.9,83,5.66,0.0,1020.80,131.7
2018-05-06 11:30,50.6304433333333,-96.9807633333333,4.9,5.6,31,993.35,2.2,88,5.64,0.0,1020.88,131.7
2018-05-06 11:40,50.6304433333333,-96.9807616666667,3.6,4.9,44,993.38,2.4,87,5.61,0.0,1020.90,131.7
2018-05-06 11:50,50.6304466666667,-96.9807633333333,2.7,3.7,55,993.48,2.4,86,5.61,0.0,1021.00,131.7
2018-05-06 12:00,50.6304466666667,-96.9807616666667,2.7,4.0,62,993.48,2.6,85,5.61,0.0,1021.00,360.0
2018-05-06 12:10,50.6304466666667,-96.9807616666667,2.8,4.2,61,993.49,2.7,83,5.66,0.0,1021.01,360.0
2018-05-06 12:20,50.6304483333333,-96.98076,2.9,3.6,42,993.59,2.6,84,5.76,0.0,1021.12,360.0
2018-05-06 12:30,50.6304366666667,-96.9807633333333,2.6,3.6,45,993.65,2.6,84,5.83,0.0,1021.22,360.0
2018-05-06 12:40,50.630435,-96.9807583333333,1.7,2.8,65,993.65,2.8,81,5.78,0.0,1021.23,360.0
2018-05-06 12:50,50.6304366666667,-96.98076,1.6,2.4,79,993.68,3.3,78,5.71,0.0,1021.28,360.0
2018-05-06 13:00,50.6304633333333,-96.9807433333333,0.9,2.0,77,993.70,3.4,77,5.69,0.0,1021.34,14.5
2018-05-06 13:10,50.63044,-96.9807616666667,0.9,1.6,109,993.71,4.0,74,5.78,0.0,1021.39,14.5
2018-05-06 13:20,50.63044,-96.9807683333333,0.8,2.3,133,993.78,3.8,75,5.78,0.0,1021.50,14.5
2018-05-06 13:30,50.6304433333333,-96.9807666666667,0.5,2.0,150,993.84,3.8,74,5.71,0.0,1021.56,14.5
2018-05-06 13:40,50.63044,-96.9807683333333,1.0,2.0,172,993.73,3.7,72,5.71,0.0,1021.45,14.5
2018-05-06 13:50,50.630435,-96.9807733333333,1.7,3.4,130,993.68,4.6,67,5.76,0.0,1021.34,14.5
2018-05-06 14:00,50.6304416666667,-96.9807666666667,2.6,3.5,132,993.65,5.5,59,5.75,0.0,1021.26,311.7
2018-05-06 14:10,50.6304416666667,-96.980765,1.5,2.8,140,993.62,5.7,58,5.69,0.0,1021.22,311.7
2018-05-06 14:20,50.6304433333333,-96.980765,1.2,1.8,146,993.58,6.2,59,5.66,0.0,1021.16,311.7
2018-05-06 14:30,50.6304416666667,-96.9807666666667,1.4,2.1,140,993.59,6.4,62,5.60,0.0,1021.14,311.7
2018-05-06 14:40,50.630445,-96.9808083333333,1.8,3.0,136,993.59,7.3,55,5.61,0.0,1021.08,311.7
2018-05-06 14:50,50.6304416666667,-96.9807716666667,3.3,3.8,123,993.48,8.0,54,5.59,0.0,1020.92,311.7
2018-05-06 15:00,50.6304183333333,-96.980745,2.3,3.1,93,993.54,7.7,55,5.56,0.0,1020.97,360.0
2018-05-06 15:10,50.6304383333333,-96.9807716666667,2.9,4.0,97,993.53,7.4,56,5.53,0.0,1020.98,360.0
2018-05-06 15:20,50.6304366666667,-96.9807733333333,3.8,4.8,104,993.49,6.9,57,5.49,0.0,1020.96,360.0
2018-05-06 15:30,50.630435,-96.980785,4.6,5.3,109,993.49,6.8,57,5.45,0.0,1020.98,360.0
2018-05-06 15:40,50.6304433333333,-96.9807733333333,3.7,4.5,101,993.53,6.6,58,5.43,0.0,1020.98,360.0
2018-05-06 15:50,50.630445,-96.9807466666667,4.1,4.9,109,993.49,7.3,53,5.48,0.0,1020.86,360.0
2018-05-06 16:00,50.630445,-96.9807566666667,4.4,5.1,117,993.49,8.5,48,5.57,0.0,1020.79,360.0
2018-05-06 16:10,50.6304333333333,-96.98075,3.8,4.3,115,993.53,9.3,47,5.62,0.0,1020.77,360.0
2018-05-06 16:20,50.6304333333333,-96.980755,4.4,5.0,118,993.53,9.0,49,5.59,0.0,1020.78,360.0
2018-05-06 16:30,50.6304333333333,-96.9807566666667,3.9,4.7,113,993.49,9.3,48,5.55,0.0,1020.68,360.0
2018-05-06 16:40,50.630435,-96.9807566666667,2.7,3.7,105,993.53,9.4,48,5.50,0.0,1020.68,360.0
2018-05-06 16:50,50.630435,-96.9807566666667,3.4,4.5,108,993.45,9.5,49,5.45,0.0,1020.60,360.0
2018-05-06 17:00,50.6304483333333,-96.9807616666667,2.9,3.5,63,993.39,7.4,57,5.42,0.0,1020.66,12.6
2018-05-06 17:10,50.6304383333333,-96.9807683333333,3.0,3.3,57,993.34,5.7,62,5.46,0.0,1020.72,12.6
2018-05-06 17:20,50.63044,-96.9807716666667,3.1,3.3,78,993.32,5.7,62,5.48,0.0,1020.71,12.6
2018-05-06 17:30,50.6304216666667,-96.9807683333333,3.1,3.5,77,993.23,6.2,61,5.51,0.0,1020.60,12.6
2018-05-06 17:40,50.63043,-96.98077,3.5,4.0,61,993.11,5.4,64,5.49,0.0,1020.48,12.6
2018-05-06 17:50,50.6304316666667,-96.980765,3.2,3.6,72,992.96,5.6,62,5.47,0.0,1020.25,12.6
2018-05-06 18:00,50.6304316666667,-96.9807683333333,4.0,4.9,50,992.94,5.6,63,5.46,0.0,1020.20,328.9
2018-05-06 18:10,50.6304316666667,-96.9807683333333,4.8,6.1,50,992.89,5.0,66,5.45,0.0,1020.18,328.9
2018-05-06 18:20,50.63043,-96.98077,5.9,6.9,50,992.81,4.4,72,5.46,0.0,1020.12,328.9
2018-05-06 18:30,50.63043,-96.9807683333333,5.4,6.0,43,992.79,4.0,74,5.45,0.0,1020.11,328.9
2018-05-06 18:40,50.6304183333333,-96.980755,5.4,6.1,43,992.80,3.6,79,5.51,0.0,1020.13,328.9
2018-05-06 18:50,50.630425,-96.9807616666667,5.1,5.8,45,992.75,3.5,81,5.50,0.0,1020.19,328.9
2018-05-06 19:00,50.63042,-96.98077,5.6,6.3,37,992.62,3.3,83,5.47,0.0,1020.16,207.6
2018-05-06 19:10,50.63046,-96.9807716666667,5.1,5.9,42,992.54,3.3,83,5.43,0.0,1020.08,207.6
2018-05-06 19:20,50.6304283333333,-96.9807683333333,4.3,5.6,45,992.47,3.3,83,5.39,0.0,1019.98,207.6
2018-05-06 19:30,50.6304283333333,-96.9807716666667,4.2,5.3,43,992.48,3.5,81,5.35,0.0,1020.02,207.6
2018-05-06 19:40,50.630415,-96.9807616666667,5.7,7.0,50,992.44,4.1,77,5.41,0.0,1019.95,207.6
2018-05-06 19:50,50.630435,-96.9807433333333,5.4,6.8,52,992.44,5.0,70,5.40,0.0,1019.89,207.6
2018-05-06 20:00,50.6304333333333,-96.98075,5.5,7.2,57,992.33,5.7,67,5.37,0.0,1019.77,156.5
2018-05-06 20:10,50.630445,-96.9807533333333,5.7,6.6,76,992.15,6.0,67,5.36,0.0,1019.60,156.5
2018-05-06 20:20,50.6304616666667,-96.9807683333333,6.1,8.7,65,992.04,5.5,69,5.35,0.0,1019.54,156.5
2018-05-06 20:30,50.6304316666667,-96.9807583333333,7.3,9.2,69,991.92,5.8,67,5.38,0.0,1019.42,156.5
2018-05-06 20:40,50.63043,-96.9807616666667,5.1,6.6,64,991.88,5.6,69,5.40,0.0,1019.40,156.5
2018-05-06 20:50,50.6304316666667,-96.9807616666667,5.8,8.8,80,991.72,6.5,62,5.38,0.0,1019.19,156.5
2018-05-06 21:00,50.6304333333333,-96.98076,5.9,8.0,73,991.56,7.1,60,5.40,0.0,1019.00,90.0
2018-05-06 21:10,50.6304333333333,-96.9807583333333,4.7,6.4,62,991.48,6.6,61,5.41,0.0,1018.95,90.0
2018-05-06 21:20,50.6304366666667,-96.9807583333333,5.1,6.9,72,991.42,6.9,59,5.43,0.0,1018.85,90.0
2018-05-06 21:30,50.6304383333333,-96.9807566666667,3.6,5.8,96,991.28,8.6,53,5.51,0.0,1018.59,90.0
2018-05-06 21:40,50.6304383333333,-96.9807566666667,3.9,5.4,106,991.14,9.1,53,5.57,0.0,1018.39,90.0
2018-05-06 21:50,50.63044,-96.9807583333333,4.6,5.9,108,991.00,9.2,51,5.54,0.0,1018.20,90.0
2018-05-06 22:00,50.63044,-96.9807583333333,3.6,5.0,89,990.86,9.4,50,5.52,0.0,1018.04,360.0
2018-05-06 22:10,50.63044,-96.98076,3.5,4.8,70,990.83,8.6,54,5.51,0.0,1018.06,360.0
2018-05-06 22:20,50.63044,-96.980775,3.8,4.9,74,990.81,8.3,53,5.48,0.0,1018.04,360.0
2018-05-06 22:30,50.63044,-96.9807666666667,4.1,6.2,84,990.70,10.1,46,5.54,0.0,1017.86,360.0
2018-05-06 22:40,50.63044,-96.9807583333333,4.4,6.7,83,990.64,10.4,46,5.52,0.0,1017.73,360.0
2018-05-06 22:50,50.63044,-96.9807566666667,4.7,6.6,83,990.60,10.2,46,5.50,0.0,1017.67,360.0
2018-05-06 23:00,50.6304383333333,-96.9807583333333,6.7,8.1,85,990.45,9.7,49,5.58,0.0,1017.56,345.5
2018-05-06 23:10,50.6304366666667,-96.9807583333333,5.4,7.2,96,990.42,9.2,51,5.76,0.0,1017.55,345.5
2018-05-06 23:20,50.6304366666667,-96.9807566666667,4.2,6.1,92,990.43,9.1,52,5.74,0.0,1017.48,345.5
2018-05-06 23:30,50.6304383333333,-96.9807566666667,3.9,5.0,96,990.34,8.9,52,5.70,0.0,1017.37,345.5
2018-05-06 23:40,50.6304383333333,-96.9807566666667,2.6,3.8,99,990.24,9.7,49,5.69,0.0,1017.23,345.5
2018-05-06 23:50,50.63048,-96.9808016666667,2.7,3.7,90,990.16,10.1,48,5.73,0.0,1017.11,345.5
